SL-23 DEB (43094 NORAD) Tracking and Keplerian Element Data

This shows tracking and keplerian element data for the satellite.

Feedback or suggestion? Click here.




ElementValue
Catalog43094
NameSL-23 DEB
Epoch Orbit313
Epoch Day15.17521219
Epoch Year2018
RAAN291.8383
Inclination51.3368
Eccentricity0.0151441
Argument of Perigee138.9059
Mean Anonmoly171.549
Mean Motion16.09978371
Decay Rate0.0530353
L11 43094U 17086H 18015.17521219 .05303530 11370-4 53356-3 0 9995
L22 43094 51.3368 291.8383 0151441 138.9059 171.5490 16.09978371 3138

Live tracking and technical data element details for SL-23 DEB (NORAD 43094). SL-23 DEB can be tracked NOW for your location showing map with azimuth and elevation plus other details from your city location.

Track the satellite on the map from your city or location and see movement details for azimuth, elevation, latitude, longitude, range, height, and movement on the map or in text.







IsCatalogInMostPopularTable: catalog: 43094, numindb: 136
Update: records affected: 1



GetName: 43094 SL-23 DEB

Hit Count: updated at: Fri, 16 Nov 2018 12:20:23 GMT